Weather in Togur

Russia / Tomsk District     58°21′38″N   82°49′53″E
temp.,
°C
wind,
m/s
gust,
m/s
humid.,
%
clouds,
%
prec.,
mm/h
press.,
hPa
HPBL,
m
24 may, tue
tue2401:00+12s4754100 0.0 1020116
04:00+12s41054100 0.0 1019229
07:00+13s61350100 0.0 1020320
10:00+18ssw7114088 0.0 1019591
13:00+23sw6737100 0.0 10181303
16:00+25wsw453649 0.0 10182208
19:00+25sw1334100 0.0 10172323
22:00+20sse2251100 0.0 101814
25 may, wed
wed2501:00+18sw2257100 0.0 101819
04:00+15w22695 0.0 101815
07:00+17wnw23665 0.0 1019121
10:00+22nnw235233 0.0 1019538
13:00+26nw35375 0.0 10181911
16:00+27nnw56335 0.0 10182277
19:00+26nne5538100 0.0 10181773
22:00+21ne355686 0.0 101997
26 may, thu
thu2601:00+17ene3570100 0.0 101982
04:00+15ene367835 0.0 1020118
07:00+16ene367033 0.0 1021228
10:00+20ene444969 0.0 1020940
13:00+23ene45384 0.0 10191743
16:00+24ene44317 0.0 10171961
19:00+23ene443016 0.0 10171981
22:00+17ne484996 0.0 1016126
27 may, fri
fri2701:00+14ene4105553 0.0 1016180
04:00+12ene366137 0.0 1016111
07:00+13e475426 0.0 1016226
10:00+18e45355 0.0 1016892
13:00+21e4526100 0.0 10151678
16:00+23ese44244 0.0 10142012
19:00+22ese342894 0.0 10131812
22:00+16ese3347100 0.0 101429
28 may, sat
sat2801:00+14ese4752100 0.0 1014113
04:00+12se476026 0.0 1014101
07:00+13se46625 0.0 1015196
10:00+19ese5645100 0.0 1014646
13:00+23se563297 0.0 10131860
16:00+24se562912 0.0 10122284
19:00+23se4536100 0.1 10121412
22:00+19se3448100 0.0 101259